Фосфоритный

Россия / Московская область     55°19′57″N   38°53′21″E
темп.,
°C
ветер,
м/с
пор.,
м/с
влажн.,
%
обл.,
%
осадки,
мм/ч
давл.,
гПа
погр.,
м
6 марта, сб
сб600:00−10з23900 0.0 101529
03:00−11зсз22910 0.0 101621
06:00−12зсз22920 0.0 101621
09:00−10зсз23880 0.0 1016141
12:00−5зсз34800 0.0 1016609
15:00−4з357528 0.1 1015921
18:00−7з368877 0.2 1015159
21:00−11з239054 0.2 101576
7 марта, вс
вс700:00−12юз33910 0.0 101385
03:00−11юз410901 0.0 1011246
06:00−9юз6148660 0.0 1007507
09:00−6ююз7167980 0.1 1003798
12:00−4ююз91690100 0.4 9971150
15:00−3юз81593100 2.3 9921257
18:00−5з81493100 1.6 9921010
21:00−7з6157785 2.1 995917
8 марта, пн
пн800:00−7зюз6157844 0.0 996769
03:00−9юз5138746 0.0 995471
06:00−7зюз41095100 0.9 994602
09:00−7сз61088100 1.8 996752
12:00−6зсз6107789 0.1 998857
15:00−6зсз6108290 0.1 10001051
18:00−7зсз51093100 0.3 1002706
21:00−9сз41090100 0.6 1005703
9 марта, вт
вт900:00−12сз4109390 0.0 1008355
03:00−14сз499473 0.0 1011328
06:00−15сз4109577 0.0 1013368
09:00−15сз499085 0.0 1015429
12:00−12сз4784100 0.0 1016603
15:00−11сз4680100 0.1 1017777
18:00−13зсз3789100 0.0 1017314
21:00−15зсз229394 0.0 101838
10 марта, ср
ср1000:00−15ю1195100 0.0 101720
03:00−15в2497100 0.3 1017110
06:00−17св229892 0.1 101748
09:00−16св129191 0.1 1018138
12:00−11всв118199 0.0 1018442
15:00−10вюв1183100 0.1 1017446
18:00−12вюв229699 0.1 101677
21:00−12вюв2596100 0.5 1016218